Location: Unspecified
(42.3650°N, 71.1030°W)
Time: 13:40:37
(UTC+00:00)

Courier 1B - Pass Details

Date: 28 June 2024
Orbit: 962 x 1209 km, 28.3° (Epoch: 25 July)

Event Time Altitude Azimuth Distance (km) Brightness Sun altitude
Rises 05:12:11 0° 248° (WSW) 3,727 - -24.1°
Reaches altitude 10° 05:15:17 10° 235° (SW) 2,812 - -24.1°
Maximum altitude 05:20:41 25° 183° (S) 1,997 - -23.9°
Drops below altitude 10° 05:26:19 10° 131° (SE) 2,956 - -23.8°
Exits shadow 05:28:21 - 123° (ESE) 3,546 10.2 -23.7°
Sets 05:29:41 0° 119° (ESE) 3,958 10.5 -23.7°
